User: anonymous   Login
Location: Santa Teresa Spring
(37.2333°N, 121.7000°W)
Time: 12:57:18
(UTC-07:00)
Language:

Cosmos 1633 - Orbit

View from above orbital plane
View from above orbital plane
View from above satellite
View from above satellite

Ground track
Ground track

The orbit data is extracted from the following two-line orbital elements,

1 15592U 85020A   16238.56950222  .00001578  00000-0  57564-4 0  9990
2 15592  82.5361 255.2420 0015414 137.1357 223.1087 15.27262695719152
Epoch (UTC): 25 August 2016 13:40:04
Eccentricity: 0.0015414
inclination: 82.5361°
perigee height: 473 km
apogee height: 494 km
right ascension of ascending node: 255.2420°
argument of perigee: 137.1357°
revolutions per day: 15.27262695
mean anomaly at epoch: 223.1087°
orbit number at epoch: 71915

The dashed part of the orbit path shows where the satellite is in the earth's shadow,  

DLR